Tracking 19489 objects as of 22-Jan-2019
HD Live streaming from Space Station
objects crossing your sky now

OSCAR 23 (KITSAT 1)

Track OSCAR 23 (KITSAT 1) now!
10-day predictions
OSCAR 23 (KITSAT 1) is classified as:


NORAD ID: 22077
Int'l Code: 1992-052B
Perigee: 1,320.6 km
Apogee: 1,324.3 km
Inclination: 66.1 °
Period: 111.9 minutes
Semi major axis: 7693 km
RCS: 0.384 m2 (medium)
Launch date: August 10, 1992
Source: South Korea (SKOR)
Launch site: FRENCH GUIANA (FRGUI)

Uplink (MHz): 145.900/145.850
Downlink (MHz): 435.175
Beacon (MHz): 435.175
Mode: 9600bps FSK
Call sign: HL01-11 -12
Status: Inactive

aabbcc
Your satellite tracking list
Your tracking list is empty




NASA's NSSDC Master Catalog

Two Line Element Set (TLE):
1 22077U 92052B   19021.63218844 -.00000068 +00000-0 -25078-4 0  9997
2 22077 066.0824 184.4361 0002402 182.2390 261.0415 12.86526884242070
Source of the keplerian elements: AFSPC